Location: Leiter
(44.7178°N, 106.2687°W)
Time: 23:14:31
(UTC+00:00)

ESTCUBE 1 - Pass Details

Date: 29 June 2022
Orbit: 645 x 657 km, 97.9° (Epoch: 16 August)

Event Time Altitude Azimuth Distance (km) Brightness Sun altitude
Exits shadow 05:59:35 22° 227° (SW) 1,397 ? -20.3°
Maximum altitude 06:01:18 29° 265° (W) 1,188 ? -20.3°
Drops below altitude 10° 06:05:13 10° 325° (NW) 2,056 ? -20.5°
Sets 06:07:41 0° 337° (NNW) 2,973 ? -20.6°
